Flag for Argentina Weather past 2 weeks in Tucumán, Tucumán, Argentina

Now
77 °F

Broken clouds.


Feels Like: 79 °F
Forecast: N/A
Wind: 7 mph from Southwest

Location: Tucuman Aerodrome

Current Time: Dec 18, 2014 at 8:16:46 PM

Latest Report: Dec 18, 2014 at 7:00 PM


Visibility: N/A

Pressure: 29.83 "Hg

Humidity: 69%

Dew point: 66 °F

Location of TucumánLocation

Historic Weather in Tucumán — Graph

°F

Tucumán temperature yesterday

Maximum temperature yesterday: 84 °F (at 12:00 PM)
Minimum temperature yesterday: 66 °F (at 3:00 AM)
Average temperature yesterday: 73 °F

Past Weeks' High & Low Weather Summary

 TemperatureHumidityPressure
High102 °F (Dec 5, 5:00 PM)100% (Dec 11, 4:00 AM)30.07 "Hg (Dec 11, 4:00 AM)
Low61 °F (Dec 5, 6:00 AM)15% (Dec 5, 5:00 PM)29.50 "Hg (Dec 6, 6:00 PM)
Average75 °F73%29.87 "Hg
* Reported Dec 3 7:00 PM — Dec 18 7:00 PM, Tucumán, Weather by CustomWeather, © 2014

Note: Actual official high and low records may vary slightly from our data, if they occured in-between our weather recording intervals... More about our weather records

Advertising

Tucumán weather history for previous 24 hours

 ConditionsComfort  
Time TempWeatherWind HumidityBarometerVisibility
7:00 PM
Dec 18
77 °FBroken clouds.7 mph69%29.83 "HgN/A
6:00 PM79 °FScattered clouds.9 mph65%29.86 "HgN/A
5:00 PM77 °FScattered clouds.12 mph74%29.86 "HgN/A
4:00 PM81 °FScattered clouds.13 mph66%29.89 "HgN/A
3:00 PM79 °FScattered clouds.9 mph70%29.92 "HgN/A
2:00 PM82 °FScattered clouds.7 mph58%29.95 "HgN/A
1:00 PM82 °FPartly sunny.No wind62%29.98 "HgN/A
12:00 PM81 °FPassing clouds.3 mph66%30.01 "HgN/A
11:00 AM79 °FBroken clouds.3 mph61%30.01 "HgN/A
10:00 AM75 °FScattered clouds.3 mph78%30.01 "HgN/A
9:00 AM73 °FPartly sunny.No wind83%30.01 "HgN/A
8:00 AM72 °FOvercast.No wind88%30.01 "HgN/A
7:00 AM70 °FPartly sunny.5 mph94%30.01 "HgN/A
6:00 AM70 °FBroken clouds.2 mph94%29.98 "HgN/A
4:00 AM70 °FPassing clouds.2 mph94%29.95 "HgN/A
3:00 AM72 °FPassing clouds.5 mph88%29.98 "HgN/A
2:00 AM72 °FPartly cloudy.2 mph88%29.98 "HgN/A
1:00 AM73 °FPartly cloudy.2 mph89%30.01 "HgN/A
12:00 AM72 °FPartly cloudy.2 mph94%30.01 "HgN/A
11:00 PM
Dec 17
75 °FPassing clouds.5 mph83%29.98 "HgN/A
10:00 PM75 °FPassing clouds.No wind78%29.98 "HgN/A
9:00 PM75 °FClear.No wind78%29.98 "Hg10 mi
8:00 PM77 °FPassing clouds.7 mph74%29.95 "HgN/A
Weather by CustomWeather, © 2014

See weather overviewHow to use our weather pages